| time (UTC) | temp C | wind direction | speed KPH | gust KPH | rain 1hr cm | rain 24hr cm | rain mn cm | humidity % | barometer mb |
| 20260506105033 | 12 | 20 | 6.4 | 17.7 | 0.00 | 0.00 | 0.00 | 100 | 1013.0 |
| 20260506104608 | 12 | 62 | 6.4 | 25.7 | 0.00 | 0.00 | 0.00 | 100 | 1013.1 |
| 20260506104034 | 11 | 126 | 6.4 | 25.7 | 0.00 | 0.00 | 0.00 | 100 | 1013.1 |
| 20260506103533 | 11 | 352 | 8.0 | 22.5 | 0.00 | 0.00 | 0.00 | 100 | 1013.0 |
| 20260506103045 | 11 | 34 | 6.4 | 24.1 | 0.00 | 0.00 | 0.00 | 100 | 1013.0 |
| 20260506102535 | 11 | 18 | 9.7 | 24.1 | 0.00 | 0.00 | 0.00 | 100 | 1013.2 |
| 20260506102032 | 11 | 5 | 8.0 | 25.7 | 0.00 | 0.00 | 0.00 | 100 | 1013.1 |
| 20260506101548 | 11 | 352 | 6.4 | 25.7 | 0.00 | 0.00 | 0.00 | 100 | 1012.9 |
| 20260506101034 | 11 | 360 | 8.0 | 25.7 | 0.00 | 0.00 | 0.00 | 100 | 1012.9 |
| 20260506100531 | 12 | 107 | 9.7 | 20.9 | 0.00 | 0.00 | 0.00 | 100 | 1013.0 |
| 20260506100045 | 11 | 360 | 8.0 | 20.9 | 0.00 | 0.00 | 0.00 | 100 | 1013.0 |
| 20260506095531 | 11 | 352 | 4.8 | 24.1 | 0.00 | 0.00 | 0.00 | 100 | 1013.0 |
| 20260506095032 | 11 | 5 | 6.4 | 24.1 | 0.00 | 0.00 | 0.00 | 100 | 1013.0 |
| 20260506094540 | 11 | 360 | 11.3 | 24.1 | 0.00 | 0.00 | 0.00 | 100 | 1012.9 |
| 20260506094032 | 11 | 20 | 8.0 | 25.7 | 0.00 | 0.00 | 0.00 | 100 | 1013.0 |
| 20260506093533 | 11 | 34 | 9.7 | 25.7 | 0.00 | 0.00 | 0.00 | 100 | 1013.0 |
| 20260506093037 | 11 | 360 | 6.4 | 20.9 | 0.00 | 0.00 | 0.00 | 100 | 1013.0 |
| 20260506092532 | 11 | 360 | 6.4 | 25.7 | 0.00 | 0.00 | 0.00 | 100 | 1013.0 |
| 20260506092033 | 11 | 352 | 9.7 | 25.7 | 0.00 | 0.00 | 0.00 | 100 | 1013.0 |
| 20260506091536 | 11 | 28 | 4.8 | 19.3 | 0.00 | 0.00 | 0.00 | 100 | 1012.9 |
| 20260506091035 | 11 | 352 | 6.4 | 19.3 | 0.00 | 0.00 | 0.00 | 100 | 1012.9 |
| 20260506090533 | 11 | 25 | 8.0 | 17.7 | 0.00 | 0.00 | 0.00 | 100 | 1012.9 |
| 20260506090047 | 10 | 19 | 8.0 | 19.3 | 0.00 | 0.00 | 0.00 | 100 | 1012.8 |
| 20260506085532 | 10 | 360 | 6.4 | 20.9 | 0.00 | 0.00 | 0.00 | 100 | 1012.9 |
| 20260506085031 | 10 | 32 | 8.0 | 20.9 | 0.00 | 0.00 | 0.00 | 100 | 1012.9 |
| 20260506084544 | 10 | 14 | 9.7 | 20.9 | 0.00 | 0.00 | 0.00 | 100 | 1013.0 |
| 20260506084033 | 10 | 36 | 8.0 | 17.7 | 0.00 | 0.00 | 0.00 | 100 | 1012.9 |
| 20260506083532 | 10 | 44 | 6.4 | 19.3 | 0.00 | 0.00 | 0.00 | 100 | 1012.8 |
| 20260506083043 | 10 | 49 | 6.4 | 19.3 | 0.00 | 0.00 | 0.00 | 100 | 1012.9 |
| 20260506082533 | 9 | 52 | 4.8 | 19.3 | 0.00 | 0.00 | 0.00 | 100 | 1013.0 |
| 20260506082032 | 9 | 67 | 8.0 | 22.5 | 0.00 | 0.00 | 0.00 | 100 | 1012.9 |
| 20260506081537 | 9 | 62 | 6.4 | 22.5 | 0.00 | 0.00 | 0.00 | 100 | 1012.9 |
| 20260506081032 | 9 | 352 | 8.0 | 22.5 | 0.00 | 0.00 | 0.00 | 100 | 1012.9 |
| 20260506080533 | 9 | 32 | 4.8 | 17.7 | 0.00 | 0.00 | 0.00 | 100 | 1013.0 |
| 20260506073042 | 10 | 327 | 4.8 | 16.1 | 0.00 | 0.00 | 0.00 | 100 | 1012.8 |
| 20260506072531 | 9 | 349 | 6.4 | 17.7 | 0.00 | 0.00 | 0.00 | 100 | 1012.9 |
| 20260506072032 | 9 | 360 | 6.4 | 17.7 | 0.00 | 0.00 | 0.00 | 100 | 1012.8 |
| 20260506071540 | 9 | 352 | 4.8 | 16.1 | 0.00 | 0.00 | 0.00 | 100 | 1012.9 |
| 20260506071032 | 9 | 24 | 4.8 | 16.1 | 0.00 | 0.00 | 0.00 | 100 | 1012.8 |
| 20260506070532 | 9 | 18 | 3.2 | 12.9 | 0.00 | 0.00 | 0.00 | 100 | 1012.7 |
| 20260506062032 | 7 | 32 | 8.0 | 17.7 | 0.00 | 0.00 | 0.00 | 100 | 1012.6 |
| 20260506061543 | 7 | 18 | 6.4 | 16.1 | 0.00 | 0.00 | 0.00 | 100 | 1012.6 |
| 20260506061034 | 7 | 5 | 6.4 | 16.1 | 0.00 | 0.00 | 0.00 | 100 | 1012.6 |
| 20260506060535 | 7 | 33 | 4.8 | 14.5 | 0.00 | 0.00 | 0.00 | 100 | 1012.6 |
| 20260506051032 | 7 | 11 | 3.2 | 9.7 | 0.00 | 0.00 | 0.00 | 100 | 1012.3 |
| 20260506050533 | 7 | 15 | 3.2 | 9.7 | 0.00 | 0.00 | 0.00 | 100 | 1012.4 |
| 20260506045031 | 7 | 42 | 3.2 | 9.7 | 0.00 | 0.00 | 0.00 | 100 | 1012.3 |
| 20260506044545 | 7 | 26 | 3.2 | 9.7 | 0.00 | 0.00 | 0.00 | 100 | 1012.3 |
| 20260506044032 | 7 | 0 | 3.2 | 16.1 | 0.00 | 0.00 | 0.00 | 100 | 1012.2 |
| 20260506043532 | 7 | 11 | 4.8 | 16.1 | 0.00 | 0.00 | 0.00 | 100 | 1012.2 |
| 20260506043052 | 7 | 360 | 4.8 | 14.5 | 0.00 | 0.00 | 0.00 | 100 | 1012.2 |
| 20260506042532 | 7 | 45 | 4.8 | 14.5 | 0.00 | 0.00 | 0.00 | 100 | 1012.2 |
| 20260506042032 | 7 | 32 | 4.8 | 12.9 | 0.00 | 0.00 | 0.00 | 100 | 1012.2 |
| 20260506041547 | 8 | 28 | 1.6 | 8.0 | 0.00 | 0.00 | 0.00 | 100 | 1012.2 |
| 20260506041033 | 8 | 30 | 1.6 | 14.5 | 0.00 | 0.00 | 0.00 | 100 | 1012.1 |
| 20260506040531 | 8 | 350 | 3.2 | 14.5 | 0.00 | 0.00 | 0.00 | 100 | 1012.2 |
| 20260506040050 | 8 | 5 | 3.2 | 11.3 | 0.00 | 0.00 | 0.00 | 100 | 1012.1 |
| 20260506035531 | 8 | 32 | 1.6 | 8.0 | 0.00 | 0.00 | 0.00 | 100 | 1012.1 |
| 20260506035032 | 8 | 5 | 1.6 | 12.9 | 0.00 | 0.00 | 0.00 | 100 | 1012.1 |
| 20260506034543 | 8 | 30 | 3.2 | 12.9 | 0.00 | 0.00 | 0.00 | 100 | 1012.1 |
| 20260506034033 | 8 | 10 | 3.2 | 12.9 | 0.00 | 0.00 | 0.00 | 100 | 1012.1 |
| 20260506033533 | 8 | 15 | 3.2 | 9.7 | 0.00 | 0.00 | 0.00 | 100 | 1012.1 |
| 20260506033047 | 8 | 19 | 3.2 | 16.1 | 0.00 | 0.00 | 0.00 | 100 | 1012.2 |
| 20260506032534 | 8 | 32 | 1.6 | 16.1 | 0.00 | 0.00 | 0.00 | 100 | 1012.2 |
| 20260506032032 | 8 | 40 | 3.2 | 16.1 | 0.00 | 0.00 | 0.00 | 100 | 1012.1 |
| 20260506031546 | 8 | 307 | 3.2 | 11.3 | 0.00 | 0.00 | 0.00 | 100 | 1012.2 |
| 20260506031036 | 8 | 5 | 3.2 | 11.3 | 0.00 | 0.00 | 0.00 | 100 | 1012.1 |
| 20260506030532 | 8 | 53 | 3.2 | 11.3 | 0.00 | 0.00 | 0.00 | 100 | 1012.2 |
| 20260506030043 | 8 | 21 | 3.2 | 14.5 | 0.00 | 0.00 | 0.00 | 100 | 1012.2 |
| 20260506025532 | 8 | 48 | 4.8 | 14.5 | 0.00 | 0.00 | 0.00 | 100 | 1012.3 |
| 20260506025033 | 8 | 5 | 3.2 | 16.1 | 0.00 | 0.00 | 0.00 | 100 | 1012.3 |
| 20260506024546 | 8 | 13 | 3.2 | 16.1 | 0.00 | 0.00 | 0.00 | 100 | 1012.3 |
| 20260506024032 | 8 | 86 | 4.8 | 16.1 | 0.00 | 0.00 | 0.00 | 100 | 1012.4 |
| 20260506023533 | 8 | 348 | 3.2 | 16.1 | 0.00 | 0.00 | 0.00 | 100 | 1012.4 |
| 20260506023040 | 8 | 14 | 4.8 | 16.1 | 0.00 | 0.00 | 0.00 | 100 | 1012.4 |
| 20260506022533 | 8 | 19 | 6.4 | 14.5 | 0.00 | 0.00 | 0.00 | 100 | 1012.4 |
| 20260506022033 | 8 | 317 | 4.8 | 14.5 | 0.00 | 0.00 | 0.00 | 100 | 1012.4 |
| 20260506021556 | 8 | 24 | 3.2 | 14.5 | 0.00 | 0.00 | 0.00 | 100 | 1012.4 |
| 20260506021032 | 8 | 360 | 6.4 | 12.9 | 0.00 | 0.00 | 0.00 | 100 | 1012.5 |
| 20260506020534 | 8 | 24 | 4.8 | 12.9 | 0.00 | 0.00 | 0.00 | 100 | 1012.5 |
| 20260506020044 | 8 | 26 | 3.2 | 16.1 | 0.00 | 0.00 | 0.00 | 100 | 1012.4 |
| 20260506015532 | 8 | 345 | 6.4 | 19.3 | 0.00 | 0.00 | 0.00 | 100 | 1012.6 |
| 20260506015032 | 8 | 360 | 8.0 | 19.3 | 0.00 | 0.00 | 0.00 | 100 | 1012.6 |
| 20260506014543 | 9 | 5 | 3.2 | 14.5 | 0.00 | 0.00 | 0.00 | 100 | 1012.5 |
| 20260506014031 | 9 | 5 | 4.8 | 14.5 | 0.00 | 0.00 | 0.00 | 100 | 1012.6 |
| 20260506013532 | 9 | 5 | 6.4 | 17.7 | 0.00 | 0.00 | 0.00 | 100 | 1012.5 |
| 20260506013045 | 9 | 57 | 4.8 | 17.7 | 0.00 | 0.00 | 0.00 | 100 | 1012.4 |
| 20260506012532 | 9 | 30 | 4.8 | 14.5 | 0.00 | 0.00 | 0.00 | 100 | 1012.5 |
| 20260506012032 | 9 | 5 | 6.4 | 12.9 | 0.00 | 0.00 | 0.00 | 100 | 1012.5 |
| 20260506011546 | 9 | 36 | 3.2 | 9.7 | 0.00 | 0.00 | 0.00 | 100 | 1012.5 |
| 20260506011033 | 9 | 22 | 4.8 | 11.3 | 0.00 | 0.00 | 0.00 | 100 | 1012.5 |
| 20260506010533 | 9 | 52 | 4.8 | 14.5 | 0.00 | 0.00 | 0.00 | 100 | 1012.4 |
| 20260506010053 | 9 | 5 | 3.2 | 14.5 | 0.00 | 0.00 | 0.00 | 100 | 1012.5 |
| 20260506005532 | 9 | 78 | 6.4 | 14.5 | 0.00 | 0.00 | 0.00 | 100 | 1012.5 |
| 20260506005031 | 9 | 24 | 4.8 | 14.5 | 0.00 | 0.00 | 0.00 | 100 | 1012.4 |
| 20260506004544 | 9 | 22 | 4.8 | 16.1 | 0.00 | 0.00 | 0.00 | 100 | 1012.4 |
| 20260506004032 | 10 | 15 | 4.8 | 16.1 | 0.00 | 0.00 | 0.00 | 100 | 1012.5 |
| 20260506003532 | 10 | 17 | 4.8 | 16.1 | 0.00 | 0.00 | 0.00 | 100 | 1012.5 |
| 20260506003040 | 10 | 10 | 3.2 | 17.7 | 0.00 | 0.00 | 0.00 | 100 | 1012.5 |
| 20260506002532 | 10 | 27 | 3.2 | 17.7 | 0.00 | 0.00 | 0.00 | 100 | 1012.5 |
| 20260506002033 | 10 | 13 | 6.4 | 17.7 | 0.00 | 0.00 | 0.00 | 100 | 1012.5 |
| 20260506001541 | 10 | 11 | 6.4 | 19.3 | 0.00 | 0.00 | 0.00 | 100 | 1012.5 |
| 20260506001032 | 10 | 42 | 4.8 | 19.3 | 0.00 | 0.00 | 0.00 | 100 | 1012.5 |
| 20260506000532 | 10 | 5 | 6.4 | 19.3 | 0.00 | 0.00 | 0.00 | 100 | 1012.5 |
| 20260506000039 | 10 | 5 | 6.4 | 17.7 | 0.00 | 0.00 | 0.00 | 100 | 1012.5 |
| 20260505235532 | 10 | 360 | 6.4 | 14.5 | 0.00 | 0.00 | 0.00 | 100 | 1012.5 |
| 20260505235035 | 10 | 58 | 4.8 | 12.9 | 0.00 | 0.00 | 0.00 | 100 | 1012.5 |
| 20260505234604 | 10 | 5 | 1.6 | 9.7 | 0.00 | 0.00 | 0.00 | 100 | 1012.6 |
| 20260505234033 | 10 | 32 | 3.2 | 9.7 | 0.00 | 0.00 | 0.00 | 100 | 1012.6 |
| 20260505233532 | 10 | 40 | 1.6 | 9.7 | 0.00 | 0.00 | 0.00 | 100 | 1012.5 |
| 20260505233047 | 10 | 15 | 3.2 | 8.0 | 0.00 | 0.00 | 0.00 | 100 | 1012.6 |
| 20260505232535 | 10 | 30 | 3.2 | 8.0 | 0.00 | 0.00 | 0.00 | 100 | 1012.6 |
| 20260505232032 | 10 | 9 | 1.6 | 8.0 | 0.00 | 0.00 | 0.00 | 100 | 1012.6 |
| 20260505231542 | 10 | 17 | 1.6 | 8.0 | 0.00 | 0.00 | 0.00 | 100 | 1012.8 |
| 20260505231035 | 10 | 5 | 4.8 | 12.9 | 0.00 | 0.00 | 0.00 | 100 | 1012.8 |
| 20260505230534 | 10 | 15 | 4.8 | 12.9 | 0.00 | 0.00 | 0.00 | 100 | 1012.6 |
| 20260505230042 | 10 | 5 | 1.6 | 6.4 | 0.00 | 0.00 | 0.00 | 100 | 1012.7 |
| 20260505225535 | 10 | 32 | 1.6 | 6.4 | 0.00 | 0.00 | 0.00 | 100 | 1012.7 |
| 20260505225033 | 10 | 43 | 1.6 | 8.0 | 0.00 | 0.00 | 0.00 | 100 | 1012.8 |
| 20260505224544 | 10 | 41 | 3.2 | 11.3 | 0.00 | 0.00 | 0.00 | 100 | 1012.9 |
| 20260505224031 | 10 | 322 | 3.2 | 11.3 | 0.00 | 0.00 | 0.00 | 100 | 1012.8 |
| 20260505223532 | 10 | 21 | 3.2 | 11.3 | 0.00 | 0.00 | 0.00 | 100 | 1012.6 |
| 20260505223057 | 10 | 64 | 3.2 | 9.7 | 0.00 | 0.00 | 0.00 | 100 | 1012.8 |
| 20260505222532 | 10 | 49 | 3.2 | 14.5 | 0.00 | 0.00 | 0.00 | 100 | 1012.8 |
| 20260505222032 | 10 | 30 | 3.2 | 14.5 | 0.00 | 0.00 | 0.00 | 100 | 1012.8 |
| 20260505221543 | 10 | 14 | 3.2 | 12.9 | 0.00 | 0.00 | 0.00 | 100 | 1012.9 |
| 20260505221031 | 10 | 360 | 1.6 | 6.4 | 0.00 | 0.00 | 0.00 | 100 | 1012.8 |
| 20260505220532 | 11 | 30 | 1.6 | 8.0 | 0.00 | 0.00 | 0.00 | 100 | 1012.8 |
| 20260505220043 | 11 | 5 | 1.6 | 9.7 | 0.00 | 0.00 | 0.00 | 100 | 1012.7 |
| 20260505215534 | 11 | 39 | 3.2 | 9.7 | 0.00 | 0.00 | 0.00 | 100 | 1012.8 |
| 20260505215032 | 11 | 89 | 1.6 | 11.3 | 0.00 | 0.00 | 0.00 | 100 | 1012.8 |
| 20260505214552 | 11 | 32 | 3.2 | 12.9 | 0.00 | 0.00 | 0.00 | 100 | 1012.8 |
| 20260505214035 | 11 | 57 | 4.8 | 12.9 | 0.00 | 0.00 | 0.00 | 100 | 1012.8 |
| 20260505213533 | 11 | 17 | 1.6 | 11.3 | 0.00 | 0.00 | 0.00 | 100 | 1012.8 |
| 20260505213045 | 11 | 46 | 1.6 | 11.3 | 0.00 | 0.00 | 0.00 | 100 | 1012.8 |
| 20260505212533 | 11 | 33 | 1.6 | 8.0 | 0.00 | 0.00 | 0.00 | 100 | 1012.8 |
| 20260505212036 | 11 | 42 | 1.6 | 8.0 | 0.00 | 0.00 | 0.00 | 100 | 1012.9 |
| 20260505211549 | 11 | 28 | 3.2 | 8.0 | 0.00 | 0.00 | 0.00 | 100 | 1012.9 |
| 20260505211034 | 11 | 23 | 3.2 | 8.0 | 0.00 | 0.00 | 0.00 | 100 | 1012.8 |
| 20260505210533 | 11 | 58 | 3.2 | 8.0 | 0.00 | 0.00 | 0.00 | 100 | 1012.7 |
| 20260505210042 | 11 | 96 | 1.6 | 9.7 | 0.00 | 0.00 | 0.00 | 100 | 1012.8 |
| 20260505205532 | 11 | 44 | 3.2 | 11.3 | 0.00 | 0.00 | 0.00 | 100 | 1012.8 |
| 20260505205032 | 11 | 36 | 1.6 | 14.5 | 0.00 | 0.00 | 0.00 | 100 | 1012.7 |
| 20260505204542 | 11 | 45 | 3.2 | 14.5 | 0.00 | 0.00 | 0.00 | 100 | 1012.7 |
| 20260505204033 | 11 | 42 | 4.8 | 14.5 | 0.00 | 0.00 | 0.00 | 100 | 1012.7 |
| 20260505203532 | 11 | 37 | 1.6 | 8.0 | 0.00 | 0.00 | 0.00 | 100 | 1012.7 |
| 20260505203051 | 11 | 49 | 1.6 | 8.0 | 0.00 | 0.00 | 0.00 | 100 | 1012.7 |
| 20260505202532 | 11 | 57 | 3.2 | 8.0 | 0.00 | 0.00 | 0.00 | 100 | 1012.6 |
| 20260505202031 | 12 | 11 | 3.2 | 8.0 | 0.00 | 0.00 | 0.00 | 100 | 1012.4 |
| 20260505201545 | 12 | 62 | 1.6 | 9.7 | 0.00 | 0.00 | 0.00 | 100 | 1012.4 |
| 20260505201032 | 12 | 46 | 1.6 | 9.7 | 0.00 | 0.00 | 0.00 | 100 | 1012.3 |
| 20260505200534 | 12 | 352 | 1.6 | 8.0 | 0.00 | 0.00 | 0.00 | 100 | 1012.4 |
| 20260505200045 | 12 | 51 | 3.2 | 9.7 | 0.00 | 0.00 | 0.00 | 100 | 1012.3 |
| 20260505195534 | 12 | 34 | 1.6 | 9.7 | 0.00 | 0.00 | 0.00 | 100 | 1012.3 |
| 20260505195033 | 12 | 36 | 1.6 | 14.5 | 0.00 | 0.00 | 0.00 | 100 | 1012.2 |
| 20260505194545 | 12 | 61 | 3.2 | 14.5 | 0.00 | 0.00 | 0.00 | 100 | 1012.1 |
| 20260505194034 | 12 | 24 | 3.2 | 8.0 | 0.00 | 0.00 | 0.00 | 100 | 1012.0 |
| 20260505193532 | 12 | 32 | 3.2 | 8.0 | 0.00 | 0.00 | 0.00 | 100 | 1012.0 |
| 20260505193042 | 12 | 82 | 1.6 | 6.4 | 0.00 | 0.00 | 0.00 | 100 | 1011.8 |
| 20260505192535 | 12 | 53 | 1.6 | 6.4 | 0.00 | 0.00 | 0.00 | 100 | 1011.8 |
| 20260505192032 | 12 | 67 | 1.6 | 8.0 | 0.00 | 0.00 | 0.00 | 100 | 1011.8 |
| 20260505191546 | 13 | 34 | 1.6 | 8.0 | 0.00 | 0.00 | 0.00 | 100 | 1011.6 |
| 20260505191032 | 13 | 57 | 3.2 | 8.0 | 0.00 | 0.00 | 0.00 | 100 | 1011.6 |
| 20260505190532 | 13 | 58 | 1.6 | 4.8 | 0.00 | 0.00 | 0.00 | 100 | 1011.6 |
| 20260505190049 | 13 | 67 | 1.6 | 4.8 | 0.00 | 0.00 | 0.00 | 100 | 1011.7 |
| 20260505185534 | 13 | 11 | 0.0 | 6.4 | 0.00 | 0.00 | 0.00 | 100 | 1011.7 |
| 20260505185032 | 13 | 0 | 1.6 | 6.4 | 0.00 | 0.00 | 0.00 | 100 | 1011.6 |
| 20260505184546 | 13 | 55 | 1.6 | 6.4 | 0.00 | 0.00 | 0.00 | 100 | 1011.5 |
| 20260505184032 | 13 | 55 | 3.2 | 6.4 | 0.00 | 0.00 | 0.00 | 100 | 1011.4 |
| 20260505183534 | 13 | 53 | 1.6 | 9.7 | 0.00 | 0.00 | 0.00 | 100 | 1011.5 |
| 20260505183047 | 13 | 90 | 1.6 | 9.7 | 0.00 | 0.00 | 0.00 | 100 | 1011.5 |
| 20260505182535 | 13 | 0 | 1.6 | 9.7 | 0.00 | 0.00 | 0.00 | 100 | 1011.6 |
| 20260505182031 | 13 | 30 | 3.2 | 8.0 | 0.00 | 0.00 | 0.00 | 100 | 1011.5 |
| 20260505181549 | 13 | 0 | 1.6 | 6.4 | 0.00 | 0.00 | 0.00 | 100 | 1011.5 |
| 20260505181037 | 13 | 81 | 1.6 | 8.0 | 0.00 | 0.00 | 0.00 | 100 | 1011.6 |
| 20260505180536 | 13 | 78 | 3.2 | 8.0 | 0.00 | 0.00 | 0.00 | 100 | 1011.7 |
| 20260505180046 | 13 | 19 | 1.6 | 8.0 | 0.00 | 0.00 | 0.00 | 100 | 1011.7 |
| 20260505175532 | 13 | 66 | 3.2 | 8.0 | 0.00 | 0.00 | 0.00 | 100 | 1011.7 |
| 20260505175033 | 13 | 18 | 1.6 | 11.3 | 0.00 | 0.00 | 0.00 | 100 | 1011.7 |
| 20260505174537 | 13 | 0 | 1.6 | 11.3 | 0.00 | 0.00 | 0.00 | 100 | 1011.6 |
| 20260505174032 | 14 | 27 | 3.2 | 9.7 | 0.00 | 0.00 | 0.00 | 100 | 1011.6 |
| 20260505173533 | 14 | 58 | 3.2 | 8.0 | 0.00 | 0.00 | 0.00 | 100 | 1011.7 |
| 20260505173042 | 14 | 55 | 1.6 | 8.0 | 0.00 | 0.00 | 0.00 | 100 | 1011.7 |
| 20260505172531 | 14 | 69 | 1.6 | 8.0 | 0.00 | 0.00 | 0.00 | 100 | 1011.6 |
| 20260505172033 | 14 | 13 | 3.2 | 14.5 | 0.00 | 0.00 | 0.00 | 100 | 1011.6 |
| 20260505171543 | 14 | 55 | 3.2 | 14.5 | 0.00 | 0.00 | 0.00 | 100 | 1011.6 |
| 20260505171032 | 14 | 36 | 3.2 | 14.5 | 0.00 | 0.00 | 0.00 | 100 | 1011.7 |
| 20260505170532 | 14 | 59 | 3.2 | 14.5 | 0.00 | 0.00 | 0.00 | 100 | 1011.6 |
| 20260505170043 | 15 | 13 | 3.2 | 16.1 | 0.00 | 0.00 | 0.00 | 100 | 1011.7 |
| 20260505165532 | 15 | 22 | 1.6 | 16.1 | 0.00 | 0.00 | 0.00 | 100 | 1011.7 |
| 20260505165034 | 15 | 49 | 3.2 | 11.3 | 0.00 | 0.00 | 0.00 | 100 | 1011.6 |
| 20260505164542 | 15 | 26 | 1.6 | 11.3 | 0.00 | 0.00 | 0.00 | 100 | 1011.5 |
| 20260505164033 | 15 | 11 | 3.2 | 11.3 | 0.00 | 0.00 | 0.00 | 100 | 1011.6 |
| 20260505163532 | 15 | 5 | 3.2 | 9.7 | 0.00 | 0.00 | 0.00 | 100 | 1011.4 |
| 20260505163044 | 15 | 30 | 1.6 | 12.9 | 0.00 | 0.00 | 0.00 | 100 | 1011.5 |
| 20260505162536 | 15 | 34 | 3.2 | 12.9 | 0.00 | 0.00 | 0.00 | 100 | 1011.7 |
| 20260505162032 | 15 | 46 | 4.8 | 11.3 | 0.00 | 0.00 | 0.00 | 100 | 1011.6 |
| 20260505161544 | 15 | 5 | 1.6 | 9.7 | 0.00 | 0.00 | 0.00 | 100 | 1011.6 |
| 20260505161036 | 15 | 22 | 3.2 | 9.7 | 0.00 | 0.00 | 0.00 | 100 | 1011.6 |
| 20260505160532 | 15 | 51 | 3.2 | 9.7 | 0.00 | 0.00 | 0.00 | 100 | 1011.6 |
| 20260505153053 | 15 | 43 | 6.4 | 14.5 | 0.00 | 0.00 | 0.00 | 100 | 1011.7 |
| 20260505152533 | 15 | 360 | 4.8 | 14.5 | 0.00 | 0.00 | 0.00 | 100 | 1011.7 |
| 20260505152033 | 15 | 5 | 4.8 | 11.3 | 0.00 | 0.00 | 0.00 | 100 | 1011.6 |
| 20260505151544 | 15 | 28 | 4.8 | 12.9 | 0.00 | 0.00 | 0.00 | 100 | 1011.7 |
| 20260505151032 | 16 | 61 | 3.2 | 12.9 | 0.00 | 0.00 | 0.00 | 100 | 1011.8 |
| 20260505150532 | 16 | 21 | 3.2 | 12.9 | 0.00 | 0.00 | 0.00 | 100 | 1011.7 |
| 20260505140532 | 16 | 36 | 6.4 | 19.3 | 0.00 | 0.00 | 0.00 | 100 | 1012.0 |
| 20260505125032 | 15 | 92 | 4.8 | 20.9 | 0.00 | 0.00 | 0.00 | 100 | 1012.2 |
| 20260505124551 | 15 | 5 | 11.3 | 20.9 | 0.00 | 0.00 | 0.00 | 100 | 1012.2 |
| 20260505124033 | 16 | 115 | 3.2 | 17.7 | 0.00 | 0.00 | 0.00 | 100 | 1012.1 |
| 20260505123531 | 15 | 27 | 6.4 | 17.7 | 0.00 | 0.00 | 0.00 | 100 | 1012.1 |
| 20260505123046 | 15 | 360 | 3.2 | 14.5 | 0.00 | 0.00 | 0.00 | 100 | 1012.2 |
| 20260505122533 | 15 | 37 | 4.8 | 14.5 | 0.00 | 0.00 | 0.00 | 100 | 1012.2 |
| 20260505122031 | 15 | 47 | 4.8 | 11.3 | 0.00 | 0.00 | 0.00 | 100 | 1012.2 |
| 20260505121550 | 15 | 0 | 3.2 | 11.3 | 0.00 | 0.00 | 0.00 | 100 | 1012.2 |
| 20260505121033 | 15 | 21 | 1.6 | 11.3 | 0.00 | 0.00 | 0.00 | 100 | 1012.1 |
| 20260505120535 | 15 | 360 | 3.2 | 14.5 | 0.00 | 0.00 | 0.00 | 100 | 1012.3 |
| 20260505120105 | 14 | 31 | 4.8 | 14.5 | 0.00 | 0.00 | 0.00 | 100 | 1012.3 |
| 20260505115533 | 15 | 0 | 4.8 | 14.5 | 0.00 | 0.00 | 0.00 | 100 | 1012.4 |
| 20260505115032 | 15 | 94 | 4.8 | 14.5 | 0.00 | 0.00 | 0.00 | 100 | 1012.3 |
| 20260505114543 | 15 | 0 | 4.8 | 16.1 | 0.00 | 0.00 | 0.00 | 100 | 1012.3 |
| 20260505114032 | 15 | 90 | 3.2 | 16.1 | 0.00 | 0.00 | 0.00 | 100 | 1012.4 |
| 20260505113533 | 15 | 21 | 4.8 | 16.1 | 0.00 | 0.00 | 0.00 | 100 | 1012.4 |
| 20260505113044 | 15 | 28 | 3.2 | 12.9 | 0.00 | 0.00 | 0.00 | 100 | 1012.5 |
| 20260505112532 | 14 | 55 | 4.8 | 22.5 | 0.00 | 0.00 | 0.00 | 100 | 1012.5 |
| 20260505112033 | 14 | 29 | 6.4 | 22.5 | 0.00 | 0.00 | 0.00 | 100 | 1012.5 |
| 20260505111544 | 14 | 37 | 6.4 | 16.1 | 0.00 | 0.00 | 0.00 | 100 | 1012.5 |
| 20260505111033 | 14 | 30 | 4.8 | 19.3 | 0.00 | 0.00 | 0.00 | 100 | 1012.6 |
| 20260505110532 | 14 | 31 | 8.0 | 19.3 | 0.00 | 0.00 | 0.00 | 100 | 1012.6 |